Temp
14 13 13 13 13 12 12 12 11 11 11 10 10 10 10 10 10 9 9 9 9 9 9 8 8 8 7 6 5 5 5 5 5 6 6 6 7 7 9 9 12 13 15
14 14 13 13 13 12 12 12 11 11 10 10 10 10 10 10 10 9 9 9 9 8 8 8 8 7 7 6 6 5 5 5 5 6 6 7 7 9 9 10 11 14 16
14 14 13 13 12 12 12 11 11 10 10 10 10 10 10 9 9 9 9 9 8 8 8 8 8 8 6 6 6 6 5 6 6 7 7 8 9 9 9 9 11 14 15
14 13 13 13 12 12 12 11 11 10 10 10 10 10 9 9 9 8 8 8 8 8 8 8 8 7 7 6 6 6 6 7 8 8 8 8 9 10 9 10 11 14 14
13 13 13 13 12 12 12 11 11 10 10 10 9 9 9 8 8 8 8 8 8 8 8 8 8 8 8 8 7 6 6 7 8 8 9 9 9 9 10 10 13 14 14
12 12 13 13 12 12 12 11 11 10 10 9 9 8 8 8 8 8 8 8 8 8 8 8 8 7 7 7 7 6 7 8 9 9 9 9 9 10 10 10 12 14 14
12 12 13 12 12 12 11 11 10 10 9 9 8 8 8 8 8 8 8 8 7 7 6 7 7 6 6 6 6 6 7 8 9 9 10 10 10 10 11 11 12 14 14
12 12 13 12 12 11 11 10 10 9 9 9 8 8 8 8 8 7 7 7 6 6 6 6 6 6 6 6 6 6 7 7 9 9 10 11 10 11 11 12 13 14 13
11 12 12 12 11 11 10 10 9 9 9 8 8 8 8 8 7 7 7 6 6 6 6 6 6 5 5 6 6 6 7 8 9 10 10 11 10 11 11 12 13 12 12
11 12 12 11 11 10 10 9 9 9 9 8 8 8 8 7 7 7 6 6 5 5 5 5 5 5 6 6 6 7 7 8 9 10 11 10 11 10 11 12 14 13 13
12 12 11 11 11 10 10 9 9 9 8 8 8 8 7 7 6 6 6 5 5 5 5 5 5 5 6 6 7 6 7 8 8 10 11 11 10 11 10 12 13 13 12
11 11 11 11 10 10 9 9 9 8 8 7 7 7 7 6 6 6 5 5 5 5 5 5 5 5 6 6 6 6 7 7 8 10 11 11 11 11 11 12 14 14 13
11 11 11 10 10 9 9 9 8 8 7 7 6 6 6 6 5 5 4 5 5 5 5 5 5 5 6 5 5 6 6 6 7 8 11 12 11 11 12 12 14 14 13
11 10 10 9 9 9 9 8 8 8 7 6 6 5 5 5 5 5 5 5 5 5 5 5 5 5 5 5 5 5 5 5 6 8 12 12 11 11 12 13 13 13 13
10 10 9 9 9 9 8 8 8 7 7 6 6 5 5 4 4 5 5 5 6 6 5 5 5 5 5 5 4 4 5 5 6 10 12 12 12 12 12 13 13 13 13
9 9 9 8 8 8 7 7 7 7 6 5 5 5 5 5 5 5 5 6 6 5 5 4 4 4 5 5 4 4 5 5 5 6 12 12 12 13 13 13 13 13 12
9 9 8 8 7 7 6 6 5 6 6 5 5 4 4 4 4 5 5 5 5 5 4 3 3 4 5 5 4 4 4 5 5 6 10 13 13 13 14 14 13 14 12
9 9 8 7 7 6 6 5 5 4 3 4 5 4 4 4 4 4 4 5 5 5 5 4 3 4 4 4 4 4 4 5 5 6 8 13 13 13 14 13 14 14 12
8 7 6 6 5 5 5 4 4 4 3 3 4 4 4 4 3 4 4 4 4 4 4 4 4 4 4 4 4 4 4 5 5 7 9 13 14 13 14 14 15 13 12
6 6 5 5 4 4 4 3 3 4 3 3 3 3 3 3 3 4 4 4 4 4 5 4 5 4 4 4 3 3 4 4 5 6 7 13 13 14 14 14 15 12 12
5 4 4 4 3 3 3 3 3 3 3 3 2 3 3 3 3 3 4 4 4 5 5 5 5 5 4 4 3 4 4 4 5 6 6 9 13 14 15 15 14 12 12
4 4 3 3 3 3 3 3 2 3 3 2 2 3 3 3 3 3 3 4 4 5 5 5 5 5 5 5 4 3 4 4 5 5 5 7 13 13 14 14 13 13 12
4 3 3 2 2 2 2 3 2 2 2 2 2 2 2 3 3 3 3 3 4 5 5 5 5 5 5 5 4 4 3 4 4 5 5 6 11 12 13 14 13 13 12
3 2 2 2 2 2 1 1 1 1 1 1 1 1 2 3 3 3 3 3 4 4 5 5 5 5 5 5 5 4 4 4 5 4 5 6 10 12 12 13 13 12 11
2 2 2 2 2 1 1 1 0 0 1 0 1 1 1 2 2 3 3 3 4 4 5 5 5 5 5 5 5 4 4 5 6 6 7 9 10 13 12 12 13 12 11
2 2 2 2 1 1 0 0 0 0 -0 -0 -0 1 1 2 2 2 2 3 3 4 5 5 5 5 5 5 5 4 5 6 6 8 9 10 11 13 12 12 12 11 11
Height
757 763 768 773 778 781 784 786 788 790 791 790 790 790 789 787 786 784 781 778 775 772 770 767 763 761 758 756 753 750 743 740 730 719 718 716 711 706 708 718 712 713 719
749 756 762 767 772 775 778 781 783 785 785 785 785 784 783 782 780 778 775 772 768 765 763 760 756 754 750 747 743 738 733 727 720 710 709 709 709 705 703 709 707 706 714
743 749 755 761 766 770 773 776 778 780 780 780 780 779 777 775 773 772 768 765 762 758 755 752 749 746 741 738 734 728 719 710 703 699 699 699 697 699 703 698 701 704 712
736 742 749 755 760 764 768 771 774 775 776 776 775 774 772 770 767 765 762 759 756 752 749 745 741 738 733 729 725 719 709 697 688 690 687 689 691 691 700 703 695 698 707
730 736 742 749 755 759 763 766 769 770 771 771 770 769 767 765 762 760 757 753 750 746 742 738 734 730 727 722 718 710 703 690 679 682 686 691 697 694 692 695 688 693 704
724 730 738 744 750 754 758 761 764 765 766 766 765 764 762 760 758 755 751 747 742 739 735 731 727 723 718 713 709 702 696 685 677 676 680 688 682 689 688 684 684 688 704
718 725 733 739 744 748 752 756 758 759 761 761 760 759 756 754 752 749 745 742 738 735 731 727 722 717 712 705 698 692 683 677 673 665 668 674 675 676 679 682 685 687 700
713 721 728 734 739 743 747 750 752 755 756 755 754 753 751 749 746 743 741 736 733 730 726 721 717 712 707 700 693 687 677 671 665 664 666 668 673 678 681 680 681 691 702
708 715 722 728 734 738 741 745 748 750 750 749 749 747 746 744 741 739 736 732 729 724 721 717 714 709 703 696 684 678 673 664 660 656 664 666 671 675 674 675 679 689 700
701 710 718 724 729 733 737 741 743 744 744 744 743 742 740 738 737 734 732 728 724 720 716 713 709 705 699 693 685 676 664 657 655 650 654 659 665 669 669 673 677 684 695
700 709 715 721 725 729 733 736 737 739 739 739 738 736 735 734 732 730 727 723 719 716 713 708 704 699 693 687 682 674 669 660 651 649 650 653 659 665 669 673 678 681 690
700 707 713 717 722 726 729 731 732 733 734 733 732 731 730 729 727 725 723 719 716 712 709 704 700 694 687 680 677 669 660 653 650 647 647 649 652 658 664 669 675 683 691
698 705 710 715 719 722 725 726 727 728 728 728 728 726 724 724 722 720 718 714 712 708 704 700 696 690 684 679 670 665 659 652 645 642 640 644 648 654 660 668 676 684 692
698 703 708 712 715 718 721 722 724 724 724 723 723 722 720 719 718 716 712 710 706 702 698 693 689 685 680 672 666 658 652 648 643 634 631 638 644 651 656 663 672 680 689
695 700 705 709 712 715 717 719 720 720 720 719 719 719 717 714 713 711 708 706 703 699 693 688 682 677 673 666 659 653 649 644 636 626 628 633 639 646 650 659 668 675 684
693 698 702 706 709 712 713 715 716 716 715 716 716 714 713 711 709 706 703 701 699 696 691 686 681 675 669 665 659 651 646 642 635 628 626 630 633 640 646 656 662 670 680
690 696 700 703 706 709 710 711 711 712 711 711 711 709 708 707 704 701 699 697 695 692 689 685 681 676 671 664 661 655 646 637 632 625 623 626 631 633 641 651 658 666 677
688 694 698 701 704 706 707 707 707 708 706 706 706 705 704 701 699 697 695 693 690 688 686 682 679 675 669 665 660 651 642 634 628 623 620 622 627 628 637 645 653 661 673
687 692 696 699 702 703 704 703 703 704 704 702 701 700 699 696 694 693 692 690 687 684 682 679 674 668 665 659 654 646 639 633 627 620 615 614 620 626 632 642 649 659 670
687 692 694 697 699 700 700 699 700 701 700 700 699 697 694 693 690 689 688 686 683 681 679 675 672 666 662 658 653 647 640 632 627 622 615 612 615 619 627 636 645 655 666
687 691 693 695 696 697 697 696 698 699 698 696 695 694 692 690 688 686 684 681 679 678 676 671 668 665 661 658 653 648 643 634 625 619 613 609 611 614 623 633 643 654 663
686 689 691 694 694 694 694 695 696 696 695 694 692 690 688 687 685 683 681 678 676 675 673 669 665 661 658 653 652 647 640 635 626 618 614 611 609 612 619 628 639 650 657
685 687 689 692 692 692 693 694 694 694 693 691 689 687 686 684 682 679 678 675 674 671 668 665 663 657 654 651 647 642 634 626 621 616 609 605 606 611 616 624 635 644 652
684 686 689 690 690 692 692 693 693 692 691 688 686 684 683 681 680 676 675 673 670 668 666 661 656 653 650 647 645 640 632 625 618 609 603 603 601 604 613 621 631 640 649
682 685 686 688 690 690 691 691 691 689 687 685 683 682 679 678 677 673 672 669 667 665 663 660 656 652 649 645 640 634 628 620 610 603 598 595 596 600 608 616 628 638 646
682 683 685 687 687 688 688 689 688 687 685 684 682 680 677 675 673 671 669 667 664 662 660 657 654 650 646 642 636 630 624 616 607 599 595 593 593 598 605 612 624 633 642
Wind_Speed
39 36 30 28 24 22 19 15 15 14 13 14 16 16 20 23 24 25 27 30 30 31 32 33 34 34 33 31 29 32 31 29 17 31 31 30 29 28 24 33 25 21 44
41 36 33 30 26 24 20 16 15 14 13 14 16 19 21 24 25 26 30 30 31 31 32 31 32 31 32 33 30 28 32 35 33 18 28 28 28 20 28 28 24 23 39
39 37 35 33 28 25 20 15 14 13 14 15 17 20 23 24 25 28 28 30 29 28 29 29 31 33 32 30 28 32 35 38 36 22 22 20 14 19 27 27 25 32 38
39 38 38 34 30 25 19 15 14 13 15 16 18 20 20 22 26 28 26 27 29 29 29 29 31 33 33 30 28 35 38 30 28 22 20 13 13 18 20 21 27 33 32
37 38 38 33 29 23 18 16 14 14 16 17 15 15 21 23 26 24 27 27 29 30 31 31 31 31 30 34 32 35 38 37 17 16 13 11 15 16 19 19 16 30 33
36 37 37 33 27 22 18 16 14 15 15 11 13 17 20 23 25 24 24 27 28 28 31 30 33 31 30 31 35 38 37 32 20 15 19 17 19 23 20 16 13 25 10
35 37 35 31 26 21 18 16 15 12 9 13 16 18 21 24 24 23 24 25 21 25 25 32 35 27 30 31 36 40 37 33 24 18 19 18 17 16 14 20 21 33 15
32 35 34 30 24 20 17 15 12 9 11 14 17 19 20 23 24 22 21 21 28 27 29 29 30 28 30 32 36 36 37 34 29 22 25 24 27 18 18 24 34 31 28
31 33 34 28 23 19 17 14 12 10 12 15 18 19 21 23 22 20 21 27 28 29 29 27 20 30 30 33 38 37 35 33 24 14 28 31 27 23 16 21 32 27 16
32 36 31 26 22 18 16 14 11 11 13 17 19 19 21 21 20 20 24 25 23 24 23 21 27 28 32 32 36 34 31 29 28 18 28 27 22 17 13 25 34 28 26
35 31 27 21 18 17 15 12 11 13 15 18 18 19 21 17 19 23 21 21 20 21 21 23 28 31 32 34 33 32 27 34 32 19 22 28 21 20 18 29 32 35 33
32 26 21 18 17 16 14 12 12 14 16 17 17 19 20 17 22 20 19 21 20 20 22 24 30 31 34 31 36 31 34 30 21 15 19 24 23 22 22 33 30 32 37
25 21 18 18 18 15 13 12 13 15 15 14 17 18 19 22 25 21 18 17 19 22 23 26 29 28 27 27 32 31 28 26 23 23 20 23 24 25 23 31 25 31 32
23 20 19 18 15 12 11 11 13 12 13 13 16 17 19 22 22 23 20 21 23 21 24 28 27 26 20 24 29 29 27 26 25 30 22 23 22 22 25 33 27 32 31
21 19 17 14 11 10 9 10 10 11 13 15 11 15 18 18 21 20 21 23 20 23 25 25 23 23 21 21 31 28 28 27 27 13 20 22 23 24 28 33 32 33 26
20 17 15 12 10 8 8 9 11 12 6 7 13 14 17 18 19 21 21 20 18 20 21 18 19 20 21 21 28 30 30 26 24 24 20 23 21 26 30 33 27 33 29
19 16 13 11 9 8 8 9 11 8 11 13 12 14 13 18 18 19 19 20 17 17 19 18 18 18 20 20 25 27 29 28 24 21 11 25 23 29 34 30 29 32 29
15 12 11 10 8 7 8 7 7 9 13 14 14 14 17 20 17 17 18 20 15 17 19 20 18 19 20 19 25 28 32 28 25 19 19 23 25 23 29 28 32 30 29
14 13 9 6 5 5 6 5 7 9 10 15 16 17 18 17 15 14 15 15 16 17 20 23 24 23 20 20 26 32 32 29 28 25 22 22 25 29 29 32 32 33 34
12 9 8 7 4 4 5 6 7 9 7 11 15 17 16 18 17 17 17 17 15 16 21 23 23 24 21 20 26 30 31 30 25 23 26 19 23 29 34 36 33 33 32
11 9 6 3 2 2 3 2 5 11 12 13 14 15 14 16 17 16 18 17 15 16 19 20 24 23 21 19 24 27 28 28 26 23 24 11 19 31 35 34 33 34 33
10 7 5 2 0 0 4 6 9 12 14 14 14 16 13 13 15 16 17 17 18 17 19 21 22 22 20 19 24 26 28 25 25 26 22 17 21 27 35 34 33 34 33
9 7 5 3 2 5 8 8 10 12 11 13 13 12 16 13 14 15 16 17 18 18 19 21 19 19 19 20 24 27 29 30 28 29 25 17 11 31 33 36 36 34 33
8 8 4 3 5 5 8 9 10 11 11 12 13 14 15 13 14 14 17 21 20 17 19 17 18 18 19 21 23 27 31 35 38 31 22 16 10 38 36 35 36 36 34
10 7 5 3 2 4 8 8 9 10 11 12 13 13 14 13 15 15 20 21 19 18 17 16 17 18 19 20 22 28 31 33 38 29 18 10 10 38 40 38 35 35 36
8 7 3 0 1 4 6 7 8 9 10 10 13 13 11 12 13 15 19 19 18 19 16 16 18 19 19 20 24 29 30 34 35 23 14 9 15 34 37 38 37 36 40
Wind_Direction
201 202 208 208 215 217 219 231 242 249 266 274 287 290 299 303 306 305 306 305 301 299 297 294 291 292 284 271 269 292 277 280 273 274 262 267 263 272 277 274 280 255 213
202 206 209 210 214 213 219 235 241 252 267 280 286 294 299 302 304 304 308 306 304 302 300 298 296 295 279 280 274 285 290 287 270 260 253 254 237 255 280 274 284 232 201
205 207 208 208 209 211 221 231 239 259 273 278 290 296 300 302 307 310 309 305 302 303 303 299 298 296 283 282 278 292 293 285 273 232 250 248 247 272 271 283 261 197 197
204 206 207 207 206 212 221 230 247 264 269 283 292 296 301 310 312 309 310 306 303 303 303 302 302 298 289 285 291 303 299 296 281 233 227 234 238 268 257 258 276 171 169
200 204 206 204 205 210 218 233 251 261 273 283 291 298 310 312 313 310 306 307 305 305 305 306 306 303 294 300 305 306 306 302 252 223 210 196 210 243 250 246 219 162 161
195 198 200 200 202 208 221 235 248 262 277 281 297 309 309 311 312 307 307 306 307 306 311 313 314 309 303 303 309 307 306 307 305 229 199 203 234 228 226 244 219 150 154
190 194 198 196 201 209 221 229 244 260 266 293 305 306 305 311 311 309 311 312 322 324 318 320 318 311 311 309 312 312 314 320 313 293 203 204 218 229 238 236 219 159 153
185 193 195 195 200 208 214 227 238 242 279 300 301 301 303 311 311 312 313 320 322 319 317 314 314 315 313 314 311 315 314 313 316 305 207 203 224 231 235 200 168 156 142
182 192 191 193 195 200 211 220 227 257 290 294 294 296 305 307 312 312 314 322 318 315 316 320 311 313 315 316 318 315 314 311 310 288 210 215 220 232 247 177 157 144 147
183 187 187 188 191 200 210 219 244 273 286 286 290 294 305 308 312 311 315 315 308 311 312 315 317 316 315 315 316 316 317 317 320 308 201 224 223 225 204 195 167 164 152
183 179 177 184 195 202 210 228 260 275 275 282 282 293 301 302 313 315 314 314 308 310 312 312 311 316 315 317 320 318 311 316 313 300 197 214 217 221 207 194 178 166 163
167 170 179 188 194 201 217 242 261 266 273 280 284 289 295 304 323 318 310 316 310 310 306 305 314 313 317 321 323 317 325 327 315 304 201 200 201 204 209 187 182 174 175
166 175 184 191 196 204 225 247 260 272 279 277 286 280 290 317 323 315 310 314 303 304 306 313 310 312 315 319 325 320 327 323 314 310 210 197 200 193 194 179 177 173 172
171 178 186 189 196 214 232 253 264 274 280 284 287 280 302 312 314 315 317 313 308 304 317 317 314 318 309 319 331 324 327 323 309 294 199 191 183 183 182 173 176 168 163
178 181 183 192 198 216 240 257 268 284 291 294 283 294 298 298 308 306 306 300 308 321 320 322 319 321 322 322 332 331 326 326 317 297 168 169 176 176 176 173 174 164 160
174 179 183 190 202 219 242 263 282 293 281 293 292 297 305 305 309 311 316 315 319 326 329 327 315 315 326 327 332 327 326 321 319 328 179 186 189 186 172 177 167 163 157
179 185 187 193 203 219 244 265 282 278 296 309 304 313 306 316 314 318 316 312 305 326 331 329 313 311 323 325 330 323 316 318 318 320 284 183 197 171 170 176 165 161 159
179 185 188 190 206 231 250 246 259 278 303 312 317 319 312 313 314 314 316 320 314 328 328 326 313 309 316 319 329 325 321 324 325 318 318 200 187 176 169 165 169 159 160
165 165 167 179 213 229 242 259 279 292 298 301 310 312 315 320 320 319 318 317 307 314 325 321 322 314 315 320 333 331 324 324 323 327 312 189 191 182 167 166 168 160 159
145 152 159 159 192 258 281 289 295 296 288 288 290 299 316 322 321 316 320 319 309 308 318 316 325 322 317 322 330 328 324 323 322 328 332 196 192 171 169 165 165 160 164
144 145 152 183 223 297 313 355 302 294 292 285 286 306 309 306 306 307 315 317 316 311 320 315 324 326 320 327 329 326 323 315 321 325 330 312 189 170 168 168 161 163 162
152 152 146 172 212 72 337 335 319 311 301 296 302 309 311 307 318 320 324 327 327 319 314 313 319 322 322 334 329 320 314 310 318 323 324 321 184 173 167 165 162 166 163
147 143 134 117 38 5 337 317 309 305 300 306 308 311 308 303 313 322 324 330 324 316 317 316 318 321 324 329 330 324 317 316 318 316 315 305 218 169 168 163 166 164 164
142 131 117 69 26 342 336 324 308 299 300 312 310 310 302 316 320 332 331 329 320 315 320 324 325 325 327 332 330 329 330 330 333 332 320 284 250 167 165 165 167 165 162
143 139 106 52 330 325 325 315 309 304 309 314 315 310 311 315 322 335 336 331 322 315 321 326 327 326 326 329 332 333 332 336 344 341 334 300 228 171 167 165 166 163 157
146 129 125 147 352 323 323 318 317 321 322 317 312 313 316 319 325 338 335 332 326 325 326 323 326 326 325 331 338 334 337 344 347 343 328 299 194 168 164 162 163 160 160